Wetterdaten: Dienstag, 02.02.2016
Datum Zeit Temp. A. Feuchte A. Luftdruck Regen Wind Richtung Richtung Sonnenschein ET UV Solar Taupunkt Windchill Windben Empfang
02.02.2016 00:00 9,7 C 83 % 1023,2 hPa 0,0 l/m 13,1 km/h (3 Bft) W-SW 250 0 min 0,000 mm 0,0 UV-I 0 W/m 7,0 C 5,6 C 20,9 km/h (4 Bft) 97,52 %
02.02.2016 00:05 9,7 C 82 % 1023,4 hPa 0,0 l/m 13,4 km/h (3 Bft) W 273 0 min 0,000 mm 0,0 UV-I 0 W/m 6,8 C 5,5 C 22,5 km/h (4 Bft) 99,13 %
02.02.2016 00:10 9,8 C 82 % 1023,4 hPa 0,0 l/m 15,9 km/h (3 Bft) W-SW 240 0 min 0,000 mm 0,0 UV-I 0 W/m 6,9 C 4,5 C 27,4 km/h (4 Bft) 100,00 %
02.02.2016 00:15 9,8 C 82 % 1023,3 hPa 0,0 l/m 15,9 km/h (3 Bft) W-SW 254 0 min 0,000 mm 0,0 UV-I 0 W/m 6,9 C 4,5 C 22,5 km/h (4 Bft) 99,18 %
02.02.2016 00:20 9,8 C 82 % 1023,3 hPa 0,0 l/m 13,9 km/h (3 Bft) SW 217 0 min 0,000 mm 0,0 UV-I 0 W/m 6,9 C 5,4 C 24,1 km/h (4 Bft) 100,00 %
02.02.2016 00:25 9,7 C 82 % 1023,3 hPa 0,0 l/m 15,4 km/h (3 Bft) W-SW 247 0 min 0,000 mm 0,0 UV-I 0 W/m 6,8 C 4,6 C 24,1 km/h (4 Bft) 97,09 %
02.02.2016 00:30 9,6 C 83 % 1023,3 hPa 0,0 l/m 14,7 km/h (3 Bft) W-SW 251 0 min 0,000 mm 0,0 UV-I 0 W/m 6,9 C 4,8 C 22,5 km/h (4 Bft) 98,48 %
02.02.2016 00:35 9,4 C 83 % 1023,4 hPa 0,0 l/m 12,2 km/h (2 Bft) W-SW 250 0 min 0,000 mm 0,0 UV-I 0 W/m 6,7 C 5,7 C 20,9 km/h (4 Bft) 97,62 %
02.02.2016 00:40 9,3 C 83 % 1023,4 hPa 0,0 l/m 12,3 km/h (3 Bft) W-SW 251 0 min 0,000 mm 0,0 UV-I 0 W/m 6,6 C 5,6 C 19,3 km/h (3 Bft) 100,00 %
02.02.2016 00:45 9,2 C 84 % 1023,3 hPa 0,0 l/m 13,0 km/h (3 Bft) W-SW 242 0 min 0,000 mm 0,0 UV-I 0 W/m 6,6 C 5,1 C 22,5 km/h (4 Bft) 99,08 %
02.02.2016 00:50 9,1 C 84 % 1023,4 hPa 0,0 l/m 11,0 km/h (2 Bft) SW 230 0 min 0,000 mm 0,0 UV-I 0 W/m 6,5 C 6,0 C 17,7 km/h (3 Bft) 100,00 %
02.02.2016 00:55 9,1 C 84 % 1023,3 hPa 0,0 l/m 12,5 km/h (3 Bft) SW 227 0 min 0,000 mm 0,0 UV-I 0 W/m 6,5 C 5,2 C 20,9 km/h (4 Bft) 99,08 %
02.02.2016 01:00 9,1 C 84 % 1023,4 hPa 0,0 l/m 8,6 km/h (2 Bft) S-SO 161 0 min 0,025 mm 0,0 UV-I 0 W/m 6,5 C 7,5 C 14,5 km/h (3 Bft) 99,15 %
02.02.2016 01:05 8,9 C 84 % 1023,5 hPa 0,0 l/m 8,8 km/h (2 Bft) SW 221 0 min 0,000 mm 0,0 UV-I 0 W/m 6,3 C 7,1 C 14,5 km/h (3 Bft) 99,19 %
02.02.2016 01:10 8,8 C 85 % 1023,5 hPa 0,0 l/m 8,2 km/h (2 Bft) W-SW 237 0 min 0,000 mm 0,0 UV-I 0 W/m 6,4 C 7,5 C 14,5 km/h (3 Bft) 100,00 %
02.02.2016 01:15 8,8 C 85 % 1023,5 hPa 0,0 l/m 7,9 km/h (2 Bft) W-SW 240 0 min 0,000 mm 0,0 UV-I 0 W/m 6,4 C 7,7 C 16,1 km/h (3 Bft) 99,21 %
02.02.2016 01:20 8,7 C 85 % 1023,5 hPa 0,0 l/m 6,7 km/h (2 Bft) SW 225 0 min 0,000 mm 0,0 UV-I 0 W/m 6,3 C 8,5 C 12,9 km/h (3 Bft) 100,00 %
02.02.2016 01:25 8,7 C 85 % 1023,5 hPa 0,0 l/m 6,2 km/h (2 Bft) W-SW 240 0 min 0,000 mm 0,0 UV-I 0 W/m 6,3 C 8,7 C 12,9 km/h (3 Bft) 97,32 %
02.02.2016 01:30 8,6 C 85 % 1023,5 hPa 0,0 l/m 7,0 km/h (2 Bft) SW 225 0 min 0,000 mm 0,0 UV-I 0 W/m 6,2 C 8,1 C 14,5 km/h (3 Bft) 96,69 %
02.02.2016 01:35 8,6 C 85 % 1023,5 hPa 0,0 l/m 7,0 km/h (2 Bft) S-SW 213 0 min 0,000 mm 0,0 UV-I 0 W/m 6,2 C 8,1 C 14,5 km/h (3 Bft) 95,12 %
02.02.2016 01:40 8,6 C 86 % 1023,5 hPa 0,0 l/m 7,1 km/h (2 Bft) SW 231 0 min 0,000 mm 0,0 UV-I 0 W/m 6,4 C 8,1 C 12,9 km/h (3 Bft) 98,21 %
02.02.2016 01:45 8,6 C 85 % 1023,5 hPa 0,0 l/m 6,2 km/h (2 Bft) S-SW 207 0 min 0,000 mm 0,0 UV-I 0 W/m 6,2 C 8,6 C 14,5 km/h (3 Bft) 97,44 %
02.02.2016 01:50 8,6 C 85 % 1023,6 hPa 0,0 l/m 5,3 km/h (1 Bft) W-SW 240 0 min 0,000 mm 0,0 UV-I 0 W/m 6,2 C 8,6 C 9,7 km/h (2 Bft) 97,46 %
02.02.2016 01:55 8,5 C 85 % 1023,5 hPa 0,0 l/m 6,3 km/h (2 Bft) SW 232 0 min 0,000 mm 0,0 UV-I 0 W/m 6,1 C 8,5 C 11,3 km/h (2 Bft) 96,33 %
02.02.2016 02:00 8,5 C 86 % 1023,5 hPa 0,0 l/m 7,9 km/h (2 Bft) SW 220 0 min 0,026 mm 0,0 UV-I 0 W/m 6,3 C 7,4 C 12,9 km/h (3 Bft) 99,21 %
02.02.2016 02:05 8,6 C 86 % 1023,6 hPa 0,0 l/m 6,7 km/h (2 Bft) S-SW 206 0 min 0,000 mm 0,0 UV-I 0 W/m 6,4 C 8,4 C 11,3 km/h (2 Bft) 99,15 %
02.02.2016 02:10 8,6 C 86 % 1023,6 hPa 0,0 l/m 5,6 km/h (1 Bft) S-SW 197 0 min 0,000 mm 0,0 UV-I 0 W/m 6,4 C 8,6 C 9,7 km/h (2 Bft) 100,00 %
02.02.2016 02:15 8,6 C 86 % 1023,6 hPa 0,0 l/m 5,3 km/h (1 Bft) SW 219 0 min 0,000 mm 0,0 UV-I 0 W/m 6,4 C 8,6 C 8,0 km/h (2 Bft) 99,03 %
02.02.2016 02:20 8,6 C 86 % 1023,6 hPa 0,0 l/m 4,9 km/h (1 Bft) S-SW 206 0 min 0,000 mm 0,0 UV-I 0 W/m 6,4 C 8,6 C 8,0 km/h (2 Bft) 98,26 %
02.02.2016 02:25 8,4 C 86 % 1023,5 hPa 0,0 l/m 5,5 km/h (1 Bft) S-SW 201 0 min 0,000 mm 0,0 UV-I 0 W/m 6,2 C 8,4 C 8,0 km/h (2 Bft) 100,00 %
02.02.2016 02:30 8,3 C 87 % 1023,5 hPa 0,0 l/m 5,6 km/h (1 Bft) SW 215 0 min 0,000 mm 0,0 UV-I 0 W/m 6,3 C 8,3 C 9,7 km/h (2 Bft) 100,00 %
02.02.2016 02:35 8,3 C 87 % 1023,6 hPa 0,0 l/m 7,5 km/h (2 Bft) SW 229 0 min 0,000 mm 0,0 UV-I 0 W/m 6,3 C 7,4 C 22,5 km/h (4 Bft) 99,13 %
02.02.2016 02:40 8,3 C 86 % 1023,6 hPa 0,0 l/m 5,1 km/h (1 Bft) S-SW 205 0 min 0,000 mm 0,0 UV-I 0 W/m 6,1 C 8,3 C 9,7 km/h (2 Bft) 99,10 %
02.02.2016 02:45 8,1 C 86 % 1023,6 hPa 0,0 l/m 5,1 km/h (1 Bft) W-SW 240 0 min 0,000 mm 0,0 UV-I 0 W/m 5,9 C 8,1 C 8,0 km/h (2 Bft) 100,00 %
02.02.2016 02:50 7,9 C 87 % 1023,6 hPa 0,0 l/m 4,3 km/h (1 Bft) SW 226 0 min 0,000 mm 0,0 UV-I 0 W/m 5,9 C 7,9 C 8,0 km/h (2 Bft) 99,17 %
02.02.2016 02:55 7,8 C 87 % 1023,5 hPa 0,0 l/m 3,5 km/h (1 Bft) SW 222 0 min 0,000 mm 0,0 UV-I 0 W/m 5,8 C 7,8 C 6,4 km/h (2 Bft) 100,00 %
02.02.2016 03:00 7,8 C 87 % 1023,5 hPa 0,0 l/m 4,1 km/h (1 Bft) SW 234 0 min 0,000 mm 0,0 UV-I 0 W/m 5,8 C 7,8 C 6,4 km/h (2 Bft) 98,46 %
02.02.2016 03:05 7,8 C 87 % 1023,5 hPa 0,0 l/m 5,1 km/h (1 Bft) W 260 0 min 0,000 mm 0,0 UV-I 0 W/m 5,8 C 7,8 C 11,3 km/h (2 Bft) 99,07 %
02.02.2016 03:10 7,8 C 86 % 1023,4 hPa 0,0 l/m 6,1 km/h (2 Bft) W 267 0 min 0,000 mm 0,0 UV-I 0 W/m 5,6 C 7,8 C 12,9 km/h (3 Bft) 100,00 %
02.02.2016 03:15 7,9 C 86 % 1023,4 hPa 0,0 l/m 5,3 km/h (1 Bft) SW 223 0 min 0,000 mm 0,0 UV-I 0 W/m 5,7 C 7,9 C 9,7 km/h (2 Bft) 100,00 %
02.02.2016 03:20 7,9 C 85 % 1023,4 hPa 0,0 l/m 4,5 km/h (1 Bft) SW 234 0 min 0,000 mm 0,0 UV-I 0 W/m 5,5 C 7,9 C 9,7 km/h (2 Bft) 100,00 %
02.02.2016 03:25 7,9 C 85 % 1023,4 hPa 0,0 l/m 5,8 km/h (2 Bft) W-SW 248 0 min 0,000 mm 0,0 UV-I 0 W/m 5,5 C 7,9 C 9,7 km/h (2 Bft) 99,18 %
02.02.2016 03:30 8,0 C 85 % 1023,4 hPa 0,0 l/m 6,5 km/h (2 Bft) W-SW 250 0 min 0,000 mm 0,0 UV-I 0 W/m 5,6 C 7,9 C 12,9 km/h (3 Bft) 97,37 %
02.02.2016 03:35 7,9 C 85 % 1023,3 hPa 0,0 l/m 5,0 km/h (1 Bft) W 263 0 min 0,000 mm 0,0 UV-I 0 W/m 5,5 C 7,9 C 9,7 km/h (2 Bft) 96,61 %
02.02.2016 03:40 8,1 C 84 % 1023,3 hPa 0,0 l/m 4,7 km/h (1 Bft) W-SW 254 0 min 0,000 mm 0,0 UV-I 0 W/m 5,6 C 8,1 C 9,7 km/h (2 Bft) 98,39 %
02.02.2016 03:45 8,1 C 84 % 1023,2 hPa 0,0 l/m 5,6 km/h (1 Bft) W 274 0 min 0,000 mm 0,0 UV-I 0 W/m 5,6 C 8,1 C 9,7 km/h (2 Bft) 96,49 %
02.02.2016 03:50 8,2 C 84 % 1023,2 hPa 0,0 l/m 4,3 km/h (1 Bft) W 268 0 min 0,000 mm 0,0 UV-I 0 W/m 5,7 C 8,2 C 8,0 km/h (2 Bft) 96,69 %
02.02.2016 03:55 8,2 C 83 % 1023,1 hPa 0,0 l/m 3,9 km/h (1 Bft) W-SW 251 0 min 0,000 mm 0,0 UV-I 0 W/m 5,5 C 8,2 C 6,4 km/h (2 Bft) 97,39 %
02.02.2016 04:00 8,1 C 83 % 1023,1 hPa 0,0 l/m 2,6 km/h (1 Bft) W 269 0 min 0,000 mm 0,0 UV-I 0 W/m 5,4 C 8,1 C 6,4 km/h (2 Bft) 97,30 %
02.02.2016 04:05 8,1 C 84 % 1023,0 hPa 0,0 l/m 1,9 km/h (1 Bft) W 269 0 min 0,000 mm 0,0 UV-I 0 W/m 5,6 C 8,1 C 3,2 km/h (1 Bft) 98,08 %
02.02.2016 04:10 8,1 C 83 % 1022,8 hPa 0,0 l/m 1,2 km/h (1 Bft) W 269 0 min 0,000 mm 0,0 UV-I 0 W/m 5,4 C 8,1 C 3,2 km/h (1 Bft) 99,12 %
02.02.2016 04:15 7,9 C 83 % 1022,7 hPa 0,0 l/m 1,1 km/h (1 Bft) W 269 0 min 0,000 mm 0,0 UV-I 0 W/m 5,2 C 7,9 C 1,6 km/h (1 Bft) 98,26 %
02.02.2016 04:20 7,7 C 84 % 1022,7 hPa 0,0 l/m 1,7 km/h (1 Bft) W 269 0 min 0,000 mm 0,0 UV-I 0 W/m 5,2 C 7,7 C 3,2 km/h (1 Bft) 98,26 %
02.02.2016 04:25 7,2 C 86 % 1022,7 hPa 0,0 l/m 3,2 km/h (1 Bft) W 269 0 min 0,000 mm 0,0 UV-I 0 W/m 5,0 C 7,2 C 4,8 km/h (1 Bft) 100,00 %
02.02.2016 04:30 6,8 C 87 % 1022,7 hPa 0,0 l/m 4,5 km/h (1 Bft) SW 234 0 min 0,000 mm 0,0 UV-I 0 W/m 4,8 C 6,8 C 6,4 km/h (2 Bft) 99,13 %
02.02.2016 04:35 6,7 C 88 % 1022,7 hPa 0,0 l/m 4,8 km/h (1 Bft) SW 234 0 min 0,000 mm 0,0 UV-I 0 W/m 4,9 C 6,7 C 6,4 km/h (2 Bft) 99,17 %
02.02.2016 04:40 6,5 C 89 % 1022,7 hPa 0,0 l/m 4,9 km/h (1 Bft) SW 222 0 min 0,000 mm 0,0 UV-I 0 W/m 4,8 C 6,5 C 8,0 km/h (2 Bft) 100,00 %
02.02.2016 04:45 6,2 C 90 % 1022,6 hPa 0,0 l/m 5,6 km/h (1 Bft) SW 229 0 min 0,000 mm 0,0 UV-I 0 W/m 4,7 C 6,2 C 8,0 km/h (2 Bft) 99,13 %
02.02.2016 04:50 6,1 C 91 % 1022,6 hPa 0,0 l/m 6,2 km/h (2 Bft) SW 234 0 min 0,000 mm 0,0 UV-I 0 W/m 4,7 C 6,1 C 9,7 km/h (2 Bft) 99,17 %
02.02.2016 04:55 6,6 C 91 % 1022,5 hPa 0,0 l/m 7,9 km/h (2 Bft) W-SW 250 0 min 0,000 mm 0,0 UV-I 0 W/m 5,2 C 5,4 C 14,5 km/h (3 Bft) 99,08 %
02.02.2016 05:00 7,0 C 89 % 1022,5 hPa 0,0 l/m 9,1 km/h (2 Bft) W-SW 255 0 min 0,000 mm 0,0 UV-I 0 W/m 5,3 C 4,9 C 14,5 km/h (3 Bft) 100,00 %
02.02.2016 05:05 7,3 C 89 % 1022,5 hPa 0,0 l/m 10,0 km/h (2 Bft) W-SW 244 0 min 0,000 mm 0,0 UV-I 0 W/m 5,6 C 4,6 C 16,1 km/h (3 Bft) 99,10 %
02.02.2016 05:10 7,5 C 88 % 1022,5 hPa 0,0 l/m 11,6 km/h (2 Bft) W-SW 246 0 min 0,000 mm 0,0 UV-I 0 W/m 5,6 C 3,9 C 17,7 km/h (3 Bft) 100,00 %
02.02.2016 05:15 7,6 C 87 % 1022,4 hPa 0,0 l/m 11,4 km/h (2 Bft) W-SW 254 0 min 0,000 mm 0,0 UV-I 0 W/m 5,6 C 4,1 C 16,1 km/h (3 Bft) 99,08 %
02.02.2016 05:20 7,6 C 87 % 1022,4 hPa 0,0 l/m 10,4 km/h (2 Bft) W-SW 257 0 min 0,000 mm 0,0 UV-I 0 W/m 5,6 C 4,7 C 16,1 km/h (3 Bft) 98,29 %
02.02.2016 05:25 7,6 C 87 % 1022,3 hPa 0,0 l/m 10,8 km/h (2 Bft) SW 234 0 min 0,000 mm 0,0 UV-I 0 W/m 5,6 C 4,4 C 16,1 km/h (3 Bft) 97,46 %
02.02.2016 05:30 7,6 C 86 % 1022,3 hPa 0,0 l/m 9,7 km/h (2 Bft) W-SW 250 0 min 0,000 mm 0,0 UV-I 0 W/m 5,4 C 5,1 C 14,5 km/h (3 Bft) 98,31 %
02.02.2016 05:35 7,4 C 86 % 1022,2 hPa 0,0 l/m 9,1 km/h (2 Bft) W-SW 242 0 min 0,000 mm 0,0 UV-I 0 W/m 5,2 C 5,3 C 16,1 km/h (3 Bft) 99,17 %
02.02.2016 05:40 7,2 C 87 % 1022,3 hPa 0,0 l/m 7,7 km/h (2 Bft) S-SW 210 0 min 0,000 mm 0,0 UV-I 0 W/m 5,2 C 6,1 C 12,9 km/h (3 Bft) 99,13 %
02.02.2016 05:45 7,0 C 88 % 1022,2 hPa 0,0 l/m 7,0 km/h (2 Bft) S-SW 213 0 min 0,000 mm 0,0 UV-I 0 W/m 5,2 C 6,5 C 11,3 km/h (2 Bft) 97,50 %
02.02.2016 05:50 6,8 C 88 % 1022,2 hPa 0,0 l/m 6,7 km/h (2 Bft) S-SW 213 0 min 0,000 mm 0,0 UV-I 0 W/m 5,0 C 6,6 C 11,3 km/h (2 Bft) 97,32 %
02.02.2016 05:56 6,8 C 89 % 1022,2 hPa 0,0 l/m 7,6 km/h (2 Bft) SW 225 0 min 0,000 mm 0,0 UV-I 0 W/m 5,1 C 5,8 C 12,9 km/h (3 Bft) 97,22 %
02.02.2016 06:00 6,9 C 89 % 1022,1 hPa 0,0 l/m 9,4 km/h (2 Bft) SW 235 0 min 0,025 mm 0,0 UV-I 0 W/m 5,2 C 4,6 C 17,7 km/h (3 Bft) 96,70 %
02.02.2016 06:05 6,9 C 88 % 1022,1 hPa 0,0 l/m 12,3 km/h (3 Bft) SW 215 0 min 0,000 mm 0,0 UV-I 0 W/m 5,1 C 2,8 C 19,3 km/h (3 Bft) 97,52 %
02.02.2016 06:10 6,8 C 88 % 1022,0 hPa 0,0 l/m 11,2 km/h (2 Bft) W-SW 252 0 min 0,000 mm 0,0 UV-I 0 W/m 5,0 C 3,3 C 17,7 km/h (3 Bft) 96,58 %
02.02.2016 06:15 6,8 C 88 % 1022,1 hPa 0,0 l/m 12,3 km/h (3 Bft) SW 230 0 min 0,000 mm 0,0 UV-I 0 W/m 5,0 C 2,7 C 17,7 km/h (3 Bft) 97,39 %
02.02.2016 06:20 6,9 C 88 % 1022,1 hPa 0,0 l/m 12,2 km/h (2 Bft) SW 233 0 min 0,000 mm 0,0 UV-I 0 W/m 5,1 C 2,8 C 20,9 km/h (4 Bft) 97,52 %
02.02.2016 06:25 7,1 C 88 % 1022,1 hPa 0,0 l/m 10,6 km/h (2 Bft) SW 229 0 min 0,000 mm 0,0 UV-I 0 W/m 5,2 C 4,0 C 16,1 km/h (3 Bft) 97,94 %
02.02.2016 06:30 7,2 C 87 % 1022,1 hPa 0,0 l/m 8,8 km/h (2 Bft) SW 221 0 min 0,000 mm 0,0 UV-I 0 W/m 5,2 C 5,3 C 14,5 km/h (3 Bft) 99,29 %
02.02.2016 06:35 7,2 C 87 % 1022,0 hPa 0,0 l/m 7,6 km/h (2 Bft) SW 233 0 min 0,000 mm 0,0 UV-I 0 W/m 5,2 C 6,2 C 11,3 km/h (2 Bft) 99,13 %
02.02.2016 06:40 7,2 C 87 % 1022,0 hPa 0,0 l/m 7,4 km/h (2 Bft) S-SW 206 0 min 0,000 mm 0,0 UV-I 0 W/m 5,2 C 6,4 C 11,3 km/h (2 Bft) 98,29 %
02.02.2016 06:45 7,1 C 87 % 1022,0 hPa 0,0 l/m 7,2 km/h (2 Bft) S-SW 202 0 min 0,000 mm 0,0 UV-I 0 W/m 5,1 C 6,4 C 11,3 km/h (2 Bft) 100,00 %
02.02.2016 06:50 7,1 C 88 % 1022,0 hPa 0,0 l/m 6,8 km/h (2 Bft) W-SW 242 0 min 0,000 mm 0,0 UV-I 0 W/m 5,2 C 6,8 C 11,3 km/h (2 Bft) 100,00 %
02.02.2016 06:55 6,9 C 88 % 1022,2 hPa 0,0 l/m 7,2 km/h (2 Bft) SW 222 0 min 0,000 mm 0,0 UV-I 0 W/m 5,1 C 6,2 C 11,3 km/h (2 Bft) 100,00 %
02.02.2016 07:00 6,8 C 88 % 1022,2 hPa 0,0 l/m 7,9 km/h (2 Bft) S-SW 201 0 min 0,026 mm 0,0 UV-I 0 W/m 5,0 C 5,6 C 12,9 km/h (3 Bft) 100,00 %
02.02.2016 07:05 6,9 C 89 % 1022,2 hPa 0,0 l/m 7,9 km/h (2 Bft) SW 215 0 min 0,000 mm 0,0 UV-I 0 W/m 5,2 C 5,7 C 12,9 km/h (3 Bft) 99,15 %
02.02.2016 07:10 7,1 C 88 % 1022,1 hPa 0,0 l/m 8,7 km/h (2 Bft) S-SW 213 0 min 0,000 mm 0,0 UV-I 0 W/m 5,2 C 5,3 C 12,9 km/h (3 Bft) 99,08 %
02.02.2016 07:15 7,1 C 88 % 1022,0 hPa 0,0 l/m 8,8 km/h (2 Bft) S-SW 208 0 min 0,000 mm 0,0 UV-I 0 W/m 5,2 C 5,2 C 14,5 km/h (3 Bft) 98,35 %
02.02.2016 07:20 7,1 C 88 % 1022,1 hPa 0,0 l/m 8,3 km/h (2 Bft) SW 227 0 min 0,000 mm 0,0 UV-I 0 W/m 5,2 C 5,6 C 12,9 km/h (3 Bft) 100,00 %
02.02.2016 07:25 7,1 C 87 % 1022,2 hPa 0,0 l/m 7,9 km/h (2 Bft) SW 225 0 min 0,000 mm 0,0 UV-I 0 W/m 5,1 C 5,9 C 11,3 km/h (2 Bft) 100,00 %
02.02.2016 07:30 6,9 C 88 % 1022,3 hPa 0,0 l/m 7,5 km/h (2 Bft) SW 229 0 min 0,000 mm 0,0 UV-I 0 W/m 5,1 C 6,0 C 12,9 km/h (3 Bft) 100,00 %
02.02.2016 07:35 6,8 C 88 % 1022,3 hPa 0,0 l/m 8,1 km/h (2 Bft) S-SW 210 0 min 0,000 mm 0,0 UV-I 0 W/m 5,0 C 5,4 C 16,1 km/h (3 Bft) 100,00 %
02.02.2016 07:40 6,7 C 89 % 1022,2 hPa 0,0 l/m 6,5 km/h (2 Bft) S-SW 210 0 min 0,000 mm 0,0 UV-I 5 W/m 5,0 C 6,6 C 9,7 km/h (2 Bft) 100,00 %
02.02.2016 07:45 6,6 C 89 % 1022,3 hPa 0,0 l/m 5,2 km/h (1 Bft) SW 216 0 min 0,000 mm 0,0 UV-I 8 W/m 4,9 C 6,6 C 9,7 km/h (2 Bft) 100,00 %
02.02.2016 07:50 6,4 C 89 % 1022,3 hPa 0,0 l/m 3,4 km/h (1 Bft) SW 223 0 min 0,000 mm 0,0 UV-I 11 W/m 4,7 C 6,4 C 6,4 km/h (2 Bft) 99,26 %
02.02.2016 07:55 6,3 C 90 % 1022,4 hPa 0,0 l/m 4,1 km/h (1 Bft) S-SW 195 0 min 0,000 mm 0,0 UV-I 15 W/m 4,8 C 6,3 C 8,0 km/h (2 Bft) 95,65 %
02.02.2016 08:00 6,2 C 90 % 1022,4 hPa 0,0 l/m 7,5 km/h (2 Bft) S-SW 205 0 min 0,000 mm 0,0 UV-I 20 W/m 4,7 C 5,3 C 14,5 km/h (3 Bft) 97,56 %
02.02.2016 08:05 6,2 C 90 % 1022,4 hPa 0,0 l/m 6,9 km/h (2 Bft) S 186 0 min 0,000 mm 0,0 UV-I 25 W/m 4,7 C 5,8 C 14,5 km/h (3 Bft) 97,17 %
02.02.2016 08:10 6,2 C 90 % 1022,2 hPa 0,0 l/m 6,6 km/h (2 Bft) S 190 0 min 0,000 mm 0,0 UV-I 28 W/m 4,7 C 6,1 C 12,9 km/h (3 Bft) 97,52 %
02.02.2016 08:15 6,2 C 91 % 1022,2 hPa 0,0 l/m 6,4 km/h (2 Bft) S-SW 202 0 min 0,000 mm 0,0 UV-I 32 W/m 4,8 C 6,2 C 11,3 km/h (2 Bft) 97,44 %
02.02.2016 08:20 6,3 C 90 % 1022,2 hPa 0,0 l/m 7,7 km/h (2 Bft) W-SW 243 0 min 0,000 mm 0,0 UV-I 35 W/m 4,8 C 5,2 C 14,5 km/h (3 Bft) 96,52 %
02.02.2016 08:25 6,8 C 89 % 1022,3 hPa 0,0 l/m 10,8 km/h (2 Bft) SW 235 0 min 0,000 mm 0,0 UV-I 44 W/m 5,1 C 3,5 C 17,7 km/h (3 Bft) 96,61 %
02.02.2016 08:30 7,2 C 88 % 1022,2 hPa 0,0 l/m 11,2 km/h (2 Bft) SW 217 0 min 0,000 mm 0,0 UV-I 48 W/m 5,3 C 3,8 C 16,1 km/h (3 Bft) 97,44 %
02.02.2016 08:35 7,3 C 88 % 1022,2 hPa 0,0 l/m 9,5 km/h (2 Bft) W 269 0 min 0,000 mm 0,0 UV-I 60 W/m 5,4 C 4,9 C 14,5 km/h (3 Bft) 100,00 %
02.02.2016 08:40 7,5 C 87 % 1022,1 hPa 0,0 l/m 10,0 km/h (2 Bft) SW 220 0 min 0,000 mm 0,0 UV-I 68 W/m 5,5 C 4,8 C 17,7 km/h (3 Bft) 99,15 %
02.02.2016 08:45 7,4 C 87 % 1022,2 hPa 0,0 l/m 8,6 km/h (2 Bft) S-SW 199 0 min 0,000 mm 0,0 UV-I 76 W/m 5,4 C 5,7 C 14,5 km/h (3 Bft) 99,15 %
02.02.2016 08:50 7,4 C 88 % 1022,4 hPa 0,0 l/m 8,7 km/h (2 Bft) W-SW 249 0 min 0,000 mm 0,0 UV-I 83 W/m 5,5 C 5,6 C 14,5 km/h (3 Bft) 99,15 %
02.02.2016 08:55 7,5 C 87 % 1022,4 hPa 0,0 l/m 11,5 km/h (2 Bft) S-SW 193 0 min 0,000 mm 0,0 UV-I 90 W/m 5,5 C 3,9 C 16,1 km/h (3 Bft) 100,00 %
02.02.2016 09:00 7,6 C 87 % 1022,2 hPa 0,0 l/m 10,2 km/h (2 Bft) W-SW 246 0 min 0,000 mm 0,0 UV-I 107 W/m 5,6 C 4,8 C 16,1 km/h (3 Bft) 99,11 %
02.02.2016 09:05 7,8 C 86 % 1022,2 hPa 0,0 l/m 11,4 km/h (2 Bft) SW 223 5 min 0,025 mm 0,0 UV-I 125 W/m 5,6 C 4,3 C 17,7 km/h (3 Bft) 99,24 %
02.02.2016 09:10 8,0 C 85 % 1022,1 hPa 0,0 l/m 9,0 km/h (2 Bft) SW 220 5 min 0,000 mm 0,0 UV-I 145 W/m 5,6 C 6,0 C 16,1 km/h (3 Bft) 100,00 %
02.02.2016 09:15 8,2 C 85 % 1022,1 hPa 0,0 l/m 10,7 km/h (2 Bft) SW 229 5 min 0,000 mm 0,0 UV-I 150 W/m 5,8 C 5,2 C 16,1 km/h (3 Bft) 100,00 %
02.02.2016 09:20 8,3 C 85 % 1022,0 hPa 0,0 l/m 9,7 km/h (2 Bft) S-SW 207 5 min 0,000 mm 0,0 UV-I 143 W/m 5,9 C 5,9 C 14,5 km/h (3 Bft) 100,00 %
02.02.2016 09:25 8,4 C 85 % 1022,0 hPa 0,0 l/m 9,8 km/h (2 Bft) W-SW 248 5 min 0,000 mm 0,0 UV-I 145 W/m 6,0 C 6,0 C 16,1 km/h (3 Bft) 100,00 %
02.02.2016 09:30 8,6 C 85 % 1022,1 hPa 0,0 l/m 8,7 km/h (2 Bft) W-SW 241 0 min 0,000 mm 0,0 UV-I 126 W/m 6,2 C 6,9 C 14,5 km/h (3 Bft) 98,35 %
02.02.2016 09:35 8,7 C 84 % 1022,1 hPa 0,0 l/m 8,4 km/h (2 Bft) W-SW 241 0 min 0,000 mm 0,0 UV-I 100 W/m 6,2 C 7,2 C 14,5 km/h (3 Bft) 100,00 %
02.02.2016 09:40 8,8 C 84 % 1021,9 hPa 0,0 l/m 7,0 km/h (2 Bft) S 182 0 min 0,000 mm 0,0 UV-I 109 W/m 6,2 C 8,3 C 14,5 km/h (3 Bft) 100,00 %
02.02.2016 09:45 8,9 C 83 % 1022,0 hPa 0,0 l/m 5,3 km/h (1 Bft) SW 227 0 min 0,000 mm 0,0 UV-I 124 W/m 6,2 C 8,9 C 9,7 km/h (2 Bft) 97,30 %
02.02.2016 09:50 9,0 C 83 % 1021,9 hPa 0,0 l/m 8,5 km/h (2 Bft) SW 228 0 min 0,000 mm 0,0 UV-I 113 W/m 6,3 C 7,5 C 16,1 km/h (3 Bft) 97,46 %
02.02.2016 09:55 9,1 C 83 % 1021,9 hPa 0,0 l/m 8,1 km/h (2 Bft) SW 236 0 min 0,000 mm 0,3 UV-I 115 W/m 6,4 C 7,8 C 14,5 km/h (3 Bft) 98,35 %
02.02.2016 10:00 9,2 C 83 % 1022,0 hPa 0,0 l/m 9,7 km/h (2 Bft) SW 232 0 min 0,076 mm 0,5 UV-I 120 W/m 6,5 C 6,9 C 14,5 km/h (3 Bft) 97,44 %
02.02.2016 10:05 9,2 C 82 % 1022,0 hPa 0,0 l/m 9,0 km/h (2 Bft) S-SW 211 0 min 0,000 mm 0,5 UV-I 130 W/m 6,3 C 7,3 C 16,1 km/h (3 Bft) 95,76 %
02.02.2016 10:10 9,2 C 83 % 1021,9 hPa 0,0 l/m 9,7 km/h (2 Bft) S 186 0 min 0,000 mm 0,6 UV-I 154 W/m 6,5 C 6,9 C 17,7 km/h (3 Bft) 96,33 %
02.02.2016 10:15 9,1 C 82 % 1021,9 hPa 0,0 l/m 10,5 km/h (2 Bft) SW 225 0 min 0,000 mm 0,6 UV-I 145 W/m 6,2 C 6,3 C 17,7 km/h (3 Bft) 97,50 %
02.02.2016 10:20 9,2 C 83 % 1021,9 hPa 0,0 l/m 10,2 km/h (2 Bft) S-SW 203 0 min 0,000 mm 0,7 UV-I 166 W/m 6,5 C 6,6 C 19,3 km/h (3 Bft) 98,31 %
02.02.2016 10:25 9,3 C 81 % 1021,7 hPa 0,0 l/m 11,7 km/h (2 Bft) W-SW 248 0 min 0,000 mm 0,7 UV-I 180 W/m 6,2 C 5,9 C 20,9 km/h (4 Bft) 97,37 %
02.02.2016 10:30 9,6 C 81 % 1021,7 hPa 0,0 l/m 11,6 km/h (2 Bft) W-SW 258 0 min 0,000 mm 0,7 UV-I 173 W/m 6,5 C 6,3 C 19,3 km/h (3 Bft) 98,26 %
02.02.2016 10:35 9,7 C 80 % 1021,7 hPa 0,0 l/m 11,1 km/h (2 Bft) W 272 0 min 0,000 mm 0,8 UV-I 176 W/m 6,4 C 6,6 C 20,9 km/h (4 Bft) 99,15 %
02.02.2016 10:40 9,8 C 79 % 1021,7 hPa 0,0 l/m 12,0 km/h (2 Bft) S-SW 205 5 min 0,000 mm 0,8 UV-I 205 W/m 6,3 C 6,3 C 20,9 km/h (4 Bft) 100,00 %
02.02.2016 10:45 10,0 C 80 % 1021,6 hPa 0,0 l/m 11,1 km/h (2 Bft) W-SW 242 5 min 0,000 mm 0,8 UV-I 219 W/m 6,7 C 7,0 C 19,3 km/h (3 Bft) 99,13 %
02.02.2016 10:50 10,1 C 78 % 1021,6 hPa 0,0 l/m 10,2 km/h (2 Bft) SW 231 5 min 0,000 mm 0,9 UV-I 237 W/m 6,4 C 7,6 C 17,7 km/h (3 Bft) 99,21 %
02.02.2016 10:55 10,2 C 79 % 1021,5 hPa 0,0 l/m 6,3 km/h (2 Bft) W 272 5 min 0,000 mm 0,9 UV-I 246 W/m 6,7 C 10,2 C 12,9 km/h (3 Bft) 98,29 %
02.02.2016 11:00 10,3 C 79 % 1021,4 hPa 0,0 l/m 11,9 km/h (2 Bft) W 263 5 min 0,102 mm 0,9 UV-I 238 W/m 6,8 C 6,9 C 20,9 km/h (4 Bft) 98,21 %
02.02.2016 11:05 10,4 C 78 % 1021,3 hPa 0,0 l/m 9,3 km/h (2 Bft) SW 230 5 min 0,000 mm 1,0 UV-I 239 W/m 6,7 C 8,4 C 17,7 km/h (3 Bft) 96,58 %
02.02.2016 11:10 10,5 C 78 % 1021,3 hPa 0,0 l/m 10,8 km/h (2 Bft) W 271 5 min 0,000 mm 1,1 UV-I 270 W/m 6,8 C 7,7 C 17,7 km/h (3 Bft) 100,00 %
02.02.2016 11:15 10,6 C 78 % 1021,1 hPa 0,0 l/m 11,2 km/h (2 Bft) SW 230 5 min 0,000 mm 1,0 UV-I 235 W/m 6,9 C 7,6 C 17,7 km/h (3 Bft) 100,00 %
02.02.2016 11:20 10,6 C 76 % 1021,0 hPa 0,0 l/m 12,4 km/h (3 Bft) W-SW 257 0 min 0,000 mm 1,0 UV-I 201 W/m 6,5 C 7,0 C 20,9 km/h (4 Bft) 99,07 %
02.02.2016 11:25 10,4 C 77 % 1021,0 hPa 0,0 l/m 12,9 km/h (3 Bft) W-SW 247 0 min 0,000 mm 1,0 UV-I 184 W/m 6,5 C 6,5 C 19,3 km/h (3 Bft) 100,00 %
02.02.2016 11:30 10,4 C 77 % 1020,9 hPa 0,0 l/m 11,3 km/h (2 Bft) W-SW 247 0 min 0,000 mm 1,0 UV-I 181 W/m 6,5 C 7,3 C 19,3 km/h (3 Bft) 100,00 %
02.02.2016 11:35 10,4 C 77 % 1020,8 hPa 0,0 l/m 9,5 km/h (2 Bft) W 261 0 min 0,000 mm 1,0 UV-I 194 W/m 6,5 C 8,3 C 12,9 km/h (3 Bft) 98,87 %
02.02.2016 11:40 10,4 C 77 % 1020,7 hPa 0,0 l/m 10,9 km/h (2 Bft) W-SW 247 0 min 0,000 mm 1,1 UV-I 211 W/m 6,5 C 7,5 C 16,1 km/h (3 Bft) 99,21 %
02.02.2016 11:45 10,6 C 76 % 1020,7 hPa 0,0 l/m 11,5 km/h (2 Bft) W 265 5 min 0,000 mm 1,2 UV-I 244 W/m 6,5 C 7,5 C 19,3 km/h (3 Bft) 100,00 %
02.02.2016 11:50 10,8 C 76 % 1020,7 hPa 0,0 l/m 10,9 km/h (2 Bft) W 271 5 min 0,000 mm 1,3 UV-I 306 W/m 6,7 C 8,0 C 19,3 km/h (3 Bft) 97,50 %
02.02.2016 11:55 11,0 C 74 % 1020,7 hPa 0,0 l/m 10,7 km/h (2 Bft) W-SW 252 5 min 0,000 mm 1,3 UV-I 318 W/m 6,5 C 8,3 C 19,3 km/h (3 Bft) 98,17 %
02.02.2016 12:00 11,3 C 75 % 1020,4 hPa 0,0 l/m 8,0 km/h (2 Bft) W-SW 257 5 min 0,152 mm 1,4 UV-I 374 W/m 7,0 C 10,2 C 14,5 km/h (3 Bft) 97,52 %
02.02.2016 12:05 11,6 C 74 % 1020,4 hPa 0,0 l/m 11,9 km/h (2 Bft) SW 234 5 min 0,000 mm 1,4 UV-I 424 W/m 7,1 C 8,4 C 19,3 km/h (3 Bft) 97,50 %
02.02.2016 12:10 11,8 C 72 % 1020,2 hPa 0,0 l/m 9,4 km/h (2 Bft) W-SW 252 5 min 0,000 mm 1,3 UV-I 380 W/m 6,9 C 9,9 C 16,1 km/h (3 Bft) 96,69 %
02.02.2016 12:15 11,8 C 72 % 1020,2 hPa 0,0 l/m 12,1 km/h (2 Bft) W-SW 253 5 min 0,000 mm 1,3 UV-I 368 W/m 6,9 C 8,5 C 20,9 km/h (4 Bft) 97,32 %
02.02.2016 12:20 11,8 C 73 % 1020,0 hPa 0,0 l/m 12,3 km/h (3 Bft) W-SW 246 5 min 0,000 mm 1,4 UV-I 386 W/m 7,1 C 8,4 C 19,3 km/h (3 Bft) 100,00 %
02.02.2016 12:25 11,9 C 71 % 1019,9 hPa 0,0 l/m 16,2 km/h (3 Bft) W-SW 246 5 min 0,000 mm 1,4 UV-I 407 W/m 6,8 C 7,0 C 24,1 km/h (4 Bft) 99,23 %
02.02.2016 12:30 11,8 C 71 % 1019,7 hPa 0,0 l/m 12,4 km/h (3 Bft) SW 228 5 min 0,000 mm 1,4 UV-I 385 W/m 6,7 C 8,4 C 22,5 km/h (4 Bft) 100,00 %
02.02.2016 12:35 11,8 C 71 % 1019,6 hPa 0,0 l/m 11,0 km/h (2 Bft) W 271 5 min 0,000 mm 1,3 UV-I 303 W/m 6,7 C 9,1 C 20,9 km/h (4 Bft) 100,00 %
02.02.2016 12:40 11,8 C 72 % 1019,5 hPa 0,0 l/m 6,9 km/h (2 Bft) W 261 5 min 0,000 mm 1,3 UV-I 294 W/m 6,9 C 11,5 C 14,5 km/h (3 Bft) 100,00 %
02.02.2016 12:45 11,8 C 72 % 1019,5 hPa 0,0 l/m 6,5 km/h (2 Bft) W-SW 244 5 min 0,000 mm 1,3 UV-I 292 W/m 6,9 C 11,8 C 12,9 km/h (3 Bft) 100,00 %
02.02.2016 12:50 11,8 C 71 % 1019,4 hPa 0,0 l/m 10,7 km/h (2 Bft) W 260 5 min 0,000 mm 1,3 UV-I 306 W/m 6,7 C 9,2 C 19,3 km/h (3 Bft) 97,30 %
02.02.2016 12:55 11,8 C 72 % 1019,3 hPa 0,0 l/m 9,1 km/h (2 Bft) W 277 5 min 0,000 mm 1,2 UV-I 252 W/m 6,9 C 10,1 C 17,7 km/h (3 Bft) 99,21 %
02.02.2016 13:00 11,8 C 71 % 1019,2 hPa 0,0 l/m 10,7 km/h (2 Bft) W 264 5 min 0,203 mm 1,3 UV-I 269 W/m 6,7 C 9,2 C 19,3 km/h (3 Bft) 100,00 %
02.02.2016 13:05 11,8 C 70 % 1019,2 hPa 0,0 l/m 9,2 km/h (2 Bft) W 269 5 min 0,000 mm 1,3 UV-I 309 W/m 6,5 C 10,0 C 19,3 km/h (3 Bft) 98,17 %
02.02.2016 13:10 11,9 C 70 % 1019,1 hPa 0,0 l/m 12,5 km/h (3 Bft) W 263 5 min 0,000 mm 1,3 UV-I 320 W/m 6,6 C 8,5 C 22,5 km/h (4 Bft) 100,00 %
02.02.2016 13:15 11,9 C 70 % 1019,1 hPa 0,0 l/m 11,9 km/h (2 Bft) W 278 5 min 0,000 mm 1,3 UV-I 340 W/m 6,6 C 8,7 C 19,3 km/h (3 Bft) 99,12 %
02.02.2016 13:20 12,0 C 70 % 1019,0 hPa 0,0 l/m 12,8 km/h (3 Bft) W-SW 252 5 min 0,000 mm 1,3 UV-I 321 W/m 6,7 C 8,5 C 19,3 km/h (3 Bft) 99,18 %
02.02.2016 13:25 12,1 C 69 % 1018,8 hPa 0,0 l/m 12,3 km/h (3 Bft) W-SW 256 5 min 0,000 mm 1,2 UV-I 328 W/m 6,6 C 8,8 C 20,9 km/h (4 Bft) 99,17 %
02.02.2016 13:30 12,0 C 69 % 1018,7 hPa 0,0 l/m 11,8 km/h (2 Bft) W 262 5 min 0,000 mm 1,2 UV-I 300 W/m 6,5 C 8,9 C 19,3 km/h (3 Bft) 97,25 %
02.02.2016 13:35 12,0 C 69 % 1018,7 hPa 0,0 l/m 12,4 km/h (3 Bft) W-SW 240 5 min 0,000 mm 1,1 UV-I 291 W/m 6,5 C 8,6 C 19,3 km/h (3 Bft) 96,69 %
02.02.2016 13:40 12,1 C 69 % 1018,7 hPa 0,0 l/m 12,8 km/h (3 Bft) SW 232 5 min 0,000 mm 1,1 UV-I 280 W/m 6,6 C 8,6 C 20,9 km/h (4 Bft) 96,75 %
02.02.2016 13:45 12,1 C 69 % 1018,6 hPa 0,0 l/m 12,4 km/h (3 Bft) W-SW 257 5 min 0,000 mm 1,0 UV-I 267 W/m 6,6 C 8,8 C 17,7 km/h (3 Bft) 96,61 %
02.02.2016 13:50 12,1 C 69 % 1018,3 hPa 0,0 l/m 10,1 km/h (2 Bft) SW 234 5 min 0,000 mm 1,1 UV-I 293 W/m 6,6 C 9,9 C 16,1 km/h (3 Bft) 96,52 %
02.02.2016 13:55 12,3 C 68 % 1018,3 hPa 0,0 l/m 9,2 km/h (2 Bft) SW 223 5 min 0,000 mm 1,1 UV-I 320 W/m 6,6 C 10,6 C 14,5 km/h (3 Bft) 97,30 %
02.02.2016 14:00 12,3 C 69 % 1018,3 hPa 0,0 l/m 8,7 km/h (2 Bft) W-SW 243 5 min 0,178 mm 1,0 UV-I 293 W/m 6,8 C 10,8 C 14,5 km/h (3 Bft) 98,39 %
02.02.2016 14:05 12,3 C 68 % 1018,1 hPa 0,0 l/m 9,0 km/h (2 Bft) W-SW 257 5 min 0,000 mm 1,0 UV-I 293 W/m 6,6 C 10,7 C 16,1 km/h (3 Bft) 98,29 %
02.02.2016 14:10 12,2 C 68 % 1018,0 hPa 0,0 l/m 6,7 km/h (2 Bft) W 268 5 min 0,000 mm 0,9 UV-I 238 W/m 6,5 C 12,0 C 12,9 km/h (3 Bft) 100,00 %
02.02.2016 14:15 12,1 C 70 % 1017,9 hPa 0,0 l/m 2,7 km/h (1 Bft) W-SW 240 5 min 0,000 mm 0,8 UV-I 214 W/m 6,8 C 12,1 C 4,8 km/h (1 Bft) 99,15 %
02.02.2016 14:20 11,8 C 71 % 1017,8 hPa 0,0 l/m 4,2 km/h (1 Bft) W 264 0 min 0,000 mm 0,8 UV-I 147 W/m 6,7 C 11,8 C 8,0 km/h (2 Bft) 98,25 %
02.02.2016 14:25 11,9 C 71 % 1017,7 hPa 0,0 l/m 5,3 km/h (1 Bft) W 259 5 min 0,000 mm 0,8 UV-I 248 W/m 6,8 C 11,9 C 14,5 km/h (3 Bft) 98,31 %
02.02.2016 14:30 12,1 C 71 % 1017,7 hPa 0,0 l/m 2,9 km/h (1 Bft) W 279 5 min 0,000 mm 0,8 UV-I 249 W/m 7,0 C 12,1 C 8,0 km/h (2 Bft) 99,11 %
02.02.2016 14:35 12,1 C 72 % 1017,5 hPa 0,0 l/m 2,1 km/h (1 Bft) W-NW 290 5 min 0,000 mm 0,8 UV-I 265 W/m 7,2 C 12,1 C 6,4 km/h (2 Bft) 98,45 %
02.02.2016 14:40 12,1 C 72 % 1017,5 hPa 0,0 l/m 2,3 km/h (1 Bft) W 277 5 min 0,000 mm 0,7 UV-I 236 W/m 7,2 C 12,1 C 6,4 km/h (2 Bft) 100,00 %
02.02.2016 14:45 12,1 C 72 % 1017,5 hPa 0,0 l/m 3,7 km/h (1 Bft) NW 315 5 min 0,000 mm 0,7 UV-I 243 W/m 7,2 C 12,1 C 12,9 km/h (3 Bft) 98,37 %
02.02.2016 14:50 11,9 C 72 % 1017,3 hPa 0,0 l/m 3,0 km/h (1 Bft) NW 324 5 min 0,000 mm 0,6 UV-I 213 W/m 7,0 C 11,9 C 9,7 km/h (2 Bft) 100,00 %
02.02.2016 14:55 12,0 C 72 % 1017,3 hPa 0,0 l/m 1,0 km/h (0 Bft) NW 315 5 min 0,000 mm 0,6 UV-I 198 W/m 7,1 C 12,0 C 3,2 km/h (1 Bft) 100,00 %
02.02.2016 15:00 11,8 C 72 % 1017,2 hPa 0,0 l/m 2,1 km/h (1 Bft) W 275 5 min 0,127 mm 0,5 UV-I 192 W/m 6,9 C 11,8 C 6,4 km/h (2 Bft) 100,00 %
02.02.2016 15:05 11,8 C 73 % 1017,1 hPa 0,0 l/m 1,9 km/h (1 Bft) SW 236 5 min 0,000 mm 0,5 UV-I 163 W/m 7,1 C 11,8 C 6,4 km/h (2 Bft) 100,00 %
02.02.2016 15:10 11,7 C 72 % 1017,1 hPa 0,0 l/m 3,1 km/h (1 Bft) W 270 0 min 0,000 mm 0,4 UV-I 140 W/m 6,8 C 11,7 C 8,0 km/h (2 Bft) 98,17 %
02.02.2016 15:15 11,7 C 71 % 1017,1 hPa 0,0 l/m 4,8 km/h (1 Bft) W 262 5 min 0,000 mm 0,0 UV-I 136 W/m 6,6 C 11,7 C 11,3 km/h (2 Bft) 97,50 %
02.02.2016 15:20 11,5 C 71 % 1017,0 hPa 0,0 l/m 3,2 km/h (1 Bft) W 270 0 min 0,000 mm 0,0 UV-I 99 W/m 6,4 C 11,5 C 9,7 km/h (2 Bft) 100,00 %
02.02.2016 15:25 11,3 C 72 % 1017,1 hPa 0,0 l/m 1,6 km/h (1 Bft) W-NW 292 0 min 0,000 mm 0,0 UV-I 109 W/m 6,4 C 11,3 C 6,4 km/h (2 Bft) 100,00 %
02.02.2016 15:30 11,3 C 71 % 1017,0 hPa 0,0 l/m 3,2 km/h (1 Bft) W 270 5 min 0,000 mm 0,0 UV-I 121 W/m 6,2 C 11,3 C 9,7 km/h (2 Bft) 100,00 %
02.02.2016 15:35 11,4 C 71 % 1016,9 hPa 0,0 l/m 1,1 km/h (1 Bft) W-NW 286 5 min 0,000 mm 0,0 UV-I 115 W/m 6,3 C 11,4 C 1,6 km/h (1 Bft) 97,44 %
02.02.2016 15:40 11,4 C 71 % 1016,8 hPa 0,0 l/m 2,7 km/h (1 Bft) W-NW 295 5 min 0,000 mm 0,0 UV-I 107 W/m 6,3 C 11,4 C 6,4 km/h (2 Bft) 97,41 %
02.02.2016 15:45 11,4 C 71 % 1016,7 hPa 0,0 l/m 0,2 km/h (0 Bft) W-NW 295 5 min 0,000 mm 0,0 UV-I 101 W/m 6,3 C 11,4 C 1,6 km/h (1 Bft) 100,00 %
02.02.2016 15:50 11,4 C 72 % 1016,6 hPa 0,0 l/m 0,6 km/h (0 Bft) W-NW 295 5 min 0,000 mm 0,0 UV-I 102 W/m 6,5 C 11,4 C 3,2 km/h (1 Bft) 98,31 %
02.02.2016 15:55 11,6 C 73 % 1016,6 hPa 0,0 l/m 0,6 km/h (0 Bft) W-NW 295 5 min 0,000 mm 0,0 UV-I 102 W/m 6,9 C 11,6 C 3,2 km/h (1 Bft) 100,00 %
02.02.2016 16:00 11,6 C 71 % 1016,5 hPa 0,0 l/m 1,7 km/h (1 Bft) W-NW 295 5 min 0,076 mm 0,0 UV-I 94 W/m 6,5 C 11,6 C 3,2 km/h (1 Bft) 100,00 %
02.02.2016 16:05 11,4 C 72 % 1016,5 hPa 0,0 l/m 1,8 km/h (1 Bft) W-NW 295 5 min 0,000 mm 0,0 UV-I 80 W/m 6,5 C 11,4 C 4,8 km/h (1 Bft) 99,15 %
02.02.2016 16:10 11,4 C 71 % 1016,4 hPa 0,0 l/m 0,6 km/h (0 Bft) W-NW 295 5 min 0,000 mm 0,0 UV-I 78 W/m 6,3 C 11,4 C 3,2 km/h (1 Bft) 99,11 %
02.02.2016 16:15 11,4 C 71 % 1016,4 hPa 0,0 l/m 0,7 km/h (0 Bft) W-NW 295 5 min 0,000 mm 0,0 UV-I 62 W/m 6,3 C 11,4 C 4,8 km/h (1 Bft) 98,39 %
02.02.2016 16:20 11,4 C 70 % 1016,3 hPa 0,0 l/m 0,5 km/h (0 Bft) W-NW 295 0 min 0,000 mm 0,0 UV-I 52 W/m 6,1 C 11,4 C 1,6 km/h (1 Bft) 98,06 %
02.02.2016 16:25 11,3 C 70 % 1016,3 hPa 0,0 l/m 1,0 km/h (0 Bft) W-NW 295 0 min 0,000 mm 0,0 UV-I 44 W/m 6,0 C 11,3 C 3,2 km/h (1 Bft) 98,33 %
02.02.2016 16:30 11,1 C 72 % 1016,4 hPa 0,0 l/m 0,9 km/h (0 Bft) W-NW 295 0 min 0,000 mm 0,0 UV-I 32 W/m 6,2 C 11,1 C 3,2 km/h (1 Bft) 100,00 %
02.02.2016 16:35 10,4 C 78 % 1016,1 hPa 0,0 l/m 0,9 km/h (0 Bft) W-NW 294 0 min 0,000 mm 0,0 UV-I 25 W/m 6,7 C 10,4 C 3,2 km/h (1 Bft) 99,24 %
02.02.2016 16:40 9,9 C 77 % 1016,1 hPa 0,0 l/m 1,8 km/h (1 Bft) W-NW 294 0 min 0,000 mm 0,0 UV-I 18 W/m 6,1 C 9,9 C 3,2 km/h (1 Bft) 100,00 %
02.02.2016 16:45 9,6 C 80 % 1016,2 hPa 0,0 l/m 0,4 km/h (0 Bft) W-NW 294 0 min 0,000 mm 0,0 UV-I 14 W/m 6,3 C 9,6 C 1,6 km/h (1 Bft) 99,13 %
02.02.2016 16:50 9,3 C 82 % 1016,3 hPa 0,0 l/m 0,0 km/h (0 Bft) W-NW 294 0 min 0,000 mm 0,0 UV-I 11 W/m 6,4 C 9,3 C 1,6 km/h (1 Bft) 99,17 %
02.02.2016 16:55 8,8 C 83 % 1016,2 hPa 0,0 l/m 1,0 km/h (0 Bft) W-NW 294 0 min 0,000 mm 0,0 UV-I 9 W/m 6,1 C 8,8 C 4,8 km/h (1 Bft) 100,00 %
02.02.2016 17:00 8,3 C 84 % 1016,2 hPa 0,0 l/m 2,8 km/h (1 Bft) W-NW 294 0 min 0,026 mm 0,0 UV-I 6 W/m 5,8 C 8,3 C 4,8 km/h (1 Bft) 98,25 %
02.02.2016 17:05 8,4 C 84 % 1016,2 hPa 0,0 l/m 2,2 km/h (1 Bft) W-NW 294 0 min 0,000 mm 0,0 UV-I 2 W/m 5,9 C 8,4 C 4,8 km/h (1 Bft) 96,69 %
02.02.2016 17:10 8,3 C 85 % 1016,2 hPa 0,0 l/m 2,4 km/h (1 Bft) W-NW 294 0 min 0,000 mm 0,0 UV-I 0 W/m 5,9 C 8,3 C 3,2 km/h (1 Bft) 97,46 %
02.02.2016 17:15 7,9 C 86 % 1016,1 hPa 0,0 l/m 2,3 km/h (1 Bft) W-NW 294 0 min 0,000 mm 0,0 UV-I 0 W/m 5,7 C 7,9 C 4,8 km/h (1 Bft) 97,30 %
02.02.2016 17:20 7,8 C 86 % 1016,0 hPa 0,0 l/m 3,7 km/h (1 Bft) S-SO 148 0 min 0,000 mm 0,0 UV-I 0 W/m 5,6 C 7,8 C 6,4 km/h (2 Bft) 95,04 %
02.02.2016 17:25 7,7 C 86 % 1016,1 hPa 0,0 l/m 3,5 km/h (1 Bft) S-SO 148 0 min 0,000 mm 0,0 UV-I 0 W/m 5,5 C 7,7 C 6,4 km/h (2 Bft) 97,56 %
02.02.2016 17:30 7,4 C 87 % 1015,9 hPa 0,0 l/m 3,5 km/h (1 Bft) S-SO 148 0 min 0,000 mm 0,0 UV-I 0 W/m 5,4 C 7,4 C 6,4 km/h (2 Bft) 98,31 %
02.02.2016 17:35 7,3 C 86 % 1016,0 hPa 0,0 l/m 2,9 km/h (1 Bft) SW 230 0 min 0,000 mm 0,0 UV-I 0 W/m 5,1 C 7,3 C 6,4 km/h (2 Bft) 96,43 %
02.02.2016 17:40 7,3 C 87 % 1015,9 hPa 0,0 l/m 2,7 km/h (1 Bft) S-SO 165 0 min 0,000 mm 0,0 UV-I 0 W/m 5,3 C 7,3 C 8,0 km/h (2 Bft) 98,00 %
02.02.2016 17:45 7,2 C 87 % 1015,8 hPa 0,0 l/m 6,0 km/h (2 Bft) SO 136 0 min 0,000 mm 0,0 UV-I 0 W/m 5,2 C 7,2 C 8,0 km/h (2 Bft) 99,06 %
02.02.2016 17:50 7,1 C 87 % 1015,9 hPa 0,0 l/m 3,3 km/h (1 Bft) SO 146 0 min 0,000 mm 0,0 UV-I 0 W/m 5,1 C 7,1 C 6,4 km/h (2 Bft) 97,92 %
02.02.2016 17:55 6,7 C 87 % 1015,8 hPa 0,0 l/m 3,3 km/h (1 Bft) S-SO 165 0 min 0,000 mm 0,0 UV-I 0 W/m 4,7 C 6,7 C 6,4 km/h (2 Bft) 98,33 %
02.02.2016 18:00 6,3 C 89 % 1015,7 hPa 0,0 l/m 2,0 km/h (1 Bft) S-SO 165 0 min 0,000 mm 0,0 UV-I 0 W/m 4,6 C 6,3 C 6,4 km/h (2 Bft) 99,17 %
02.02.2016 18:05 6,8 C 89 % 1015,7 hPa 0,0 l/m 2,1 km/h (1 Bft) S-SO 164 0 min 0,000 mm 0,0 UV-I 0 W/m 5,1 C 6,8 C 6,4 km/h (2 Bft) 100,00 %
02.02.2016 18:10 6,7 C 88 % 1015,7 hPa 0,0 l/m 3,3 km/h (1 Bft) S-SO 165 0 min 0,000 mm 0,0 UV-I 0 W/m 4,9 C 6,7 C 6,4 km/h (2 Bft) 100,00 %
02.02.2016 18:15 6,4 C 89 % 1015,7 hPa 0,0 l/m 4,2 km/h (1 Bft) S-SO 165 0 min 0,000 mm 0,0 UV-I 0 W/m 4,7 C 6,4 C 6,4 km/h (2 Bft) 100,00 %
02.02.2016 18:20 6,3 C 89 % 1015,6 hPa 0,0 l/m 3,8 km/h (1 Bft) S 190 0 min 0,000 mm 0,0 UV-I 0 W/m 4,6 C 6,3 C 8,0 km/h (2 Bft) 99,13 %
02.02.2016 18:25 6,3 C 89 % 1015,6 hPa 0,0 l/m 3,0 km/h (1 Bft) S 190 0 min 0,000 mm 0,0 UV-I 0 W/m 4,6 C 6,3 C 4,8 km/h (1 Bft) 99,15 %
02.02.2016 18:30 6,3 C 89 % 1015,5 hPa 0,0 l/m 3,5 km/h (1 Bft) S 190 0 min 0,000 mm 0,0 UV-I 0 W/m 4,6 C 6,3 C 4,8 km/h (1 Bft) 98,21 %
02.02.2016 18:35 6,1 C 89 % 1015,5 hPa 0,0 l/m 2,9 km/h (1 Bft) S 190 0 min 0,000 mm 0,0 UV-I 0 W/m 4,4 C 6,1 C 4,8 km/h (1 Bft) 100,00 %
02.02.2016 18:40 6,3 C 89 % 1015,4 hPa 0,0 l/m 3,0 km/h (1 Bft) S 190 0 min 0,000 mm 0,0 UV-I 0 W/m 4,6 C 6,3 C 4,8 km/h (1 Bft) 97,25 %
02.02.2016 18:45 6,4 C 87 % 1015,6 hPa 0,0 l/m 3,6 km/h (1 Bft) S 189 0 min 0,000 mm 0,0 UV-I 0 W/m 4,4 C 6,4 C 4,8 km/h (1 Bft) 98,40 %
02.02.2016 18:50 6,3 C 87 % 1015,7 hPa 0,0 l/m 2,4 km/h (1 Bft) S 189 0 min 0,000 mm 0,0 UV-I 0 W/m 4,3 C 6,3 C 4,8 km/h (1 Bft) 99,07 %
02.02.2016 18:55 5,7 C 90 % 1015,9 hPa 0,0 l/m 3,4 km/h (1 Bft) S 189 0 min 0,000 mm 0,0 UV-I 0 W/m 4,2 C 5,7 C 4,8 km/h (1 Bft) 99,15 %
02.02.2016 19:00 5,8 C 89 % 1015,9 hPa 0,0 l/m 4,7 km/h (1 Bft) S-SW 205 0 min 0,000 mm 0,0 UV-I 0 W/m 4,1 C 5,8 C 6,4 km/h (2 Bft) 100,00 %
02.02.2016 19:05 5,8 C 88 % 1016,0 hPa 0,0 l/m 3,9 km/h (1 Bft) S-SW 204 0 min 0,000 mm 0,0 UV-I 0 W/m 4,0 C 5,8 C 6,4 km/h (2 Bft) 98,04 %
02.02.2016 19:10 5,6 C 88 % 1016,1 hPa 0,0 l/m 4,6 km/h (1 Bft) S-SW 204 0 min 0,000 mm 0,0 UV-I 0 W/m 3,8 C 5,6 C 6,4 km/h (2 Bft) 100,00 %
02.02.2016 19:15 5,4 C 89 % 1016,1 hPa 0,0 l/m 5,1 km/h (1 Bft) S-SW 203 0 min 0,000 mm 0,0 UV-I 0 W/m 3,7 C 5,4 C 6,4 km/h (2 Bft) 99,15 %
02.02.2016 19:20 5,5 C 88 % 1016,2 hPa 0,0 l/m 5,2 km/h (1 Bft) S-SW 208 0 min 0,000 mm 0,0 UV-I 0 W/m 3,7 C 5,5 C 8,0 km/h (2 Bft) 100,00 %
02.02.2016 19:25 5,6 C 88 % 1016,0 hPa 0,0 l/m 6,1 km/h (2 Bft) S-SW 195 0 min 0,000 mm 0,0 UV-I 0 W/m 3,8 C 5,6 C 9,7 km/h (2 Bft) 99,19 %
02.02.2016 19:30 5,8 C 88 % 1016,1 hPa 0,0 l/m 7,1 km/h (2 Bft) S 181 0 min 0,000 mm 0,0 UV-I 0 W/m 4,0 C 5,2 C 9,7 km/h (2 Bft) 98,20 %
02.02.2016 19:35 5,9 C 87 % 1016,1 hPa 0,0 l/m 7,0 km/h (2 Bft) S 190 0 min 0,000 mm 0,0 UV-I 0 W/m 3,9 C 5,4 C 9,7 km/h (2 Bft) 97,46 %
02.02.2016 19:40 5,9 C 87 % 1016,2 hPa 0,0 l/m 6,7 km/h (2 Bft) S-SW 195 0 min 0,000 mm 0,0 UV-I 0 W/m 3,9 C 5,7 C 9,7 km/h (2 Bft) 95,93 %
02.02.2016 19:45 5,9 C 87 % 1016,2 hPa 0,0 l/m 7,0 km/h (2 Bft) S-SW 199 0 min 0,000 mm 0,0 UV-I 0 W/m 3,9 C 5,4 C 9,7 km/h (2 Bft) 97,25 %
02.02.2016 19:50 5,8 C 87 % 1016,4 hPa 0,0 l/m 7,9 km/h (2 Bft) S-SW 199 0 min 0,000 mm 0,0 UV-I 0 W/m 3,8 C 4,5 C 11,3 km/h (2 Bft) 97,46 %
02.02.2016 19:55 6,0 C 87 % 1016,4 hPa 0,0 l/m 8,6 km/h (2 Bft) SW 217 0 min 0,000 mm 0,0 UV-I 0 W/m 4,0 C 4,2 C 12,9 km/h (3 Bft) 95,54 %
02.02.2016 20:00 6,1 C 87 % 1016,5 hPa 0,0 l/m 9,4 km/h (2 Bft) S-SW 213 0 min 0,000 mm 0,0 UV-I 0 W/m 4,1 C 3,7 C 12,9 km/h (3 Bft) 96,83 %
02.02.2016 20:05 6,3 C 87 % 1016,2 hPa 0,0 l/m 9,8 km/h (2 Bft) S-SW 207 0 min 0,000 mm 0,0 UV-I 0 W/m 4,3 C 3,6 C 14,5 km/h (3 Bft) 97,52 %
02.02.2016 20:10 6,4 C 86 % 1016,4 hPa 0,0 l/m 9,6 km/h (2 Bft) S-SW 195 0 min 0,000 mm 0,0 UV-I 0 W/m 4,2 C 3,9 C 14,5 km/h (3 Bft) 99,05 %
02.02.2016 20:15 6,4 C 86 % 1016,5 hPa 0,0 l/m 9,7 km/h (2 Bft) S-SW 212 0 min 0,000 mm 0,0 UV-I 0 W/m 4,2 C 3,8 C 14,5 km/h (3 Bft) 100,00 %
02.02.2016 20:20 6,4 C 86 % 1016,5 hPa 0,0 l/m 8,9 km/h (2 Bft) SW 219 0 min 0,000 mm 0,0 UV-I 0 W/m 4,2 C 4,4 C 12,9 km/h (3 Bft) 98,26 %
02.02.2016 20:25 6,2 C 86 % 1016,5 hPa 0,0 l/m 8,6 km/h (2 Bft) S 188 0 min 0,000 mm 0,0 UV-I 0 W/m 4,0 C 4,4 C 14,5 km/h (3 Bft) 100,00 %
02.02.2016 20:30 6,1 C 87 % 1016,4 hPa 0,0 l/m 9,3 km/h (2 Bft) S-SW 205 0 min 0,000 mm 0,0 UV-I 0 W/m 4,1 C 3,8 C 14,5 km/h (3 Bft) 99,13 %
02.02.2016 20:35 6,1 C 87 % 1016,4 hPa 0,0 l/m 9,4 km/h (2 Bft) S-SW 194 0 min 0,000 mm 0,0 UV-I 0 W/m 4,1 C 3,7 C 12,9 km/h (3 Bft) 100,00 %
02.02.2016 20:40 6,2 C 86 % 1016,5 hPa 0,0 l/m 10,0 km/h (2 Bft) S-SW 193 0 min 0,000 mm 0,0 UV-I 0 W/m 4,0 C 3,4 C 12,9 km/h (3 Bft) 100,00 %
02.02.2016 20:45 6,3 C 85 % 1016,5 hPa 0,0 l/m 8,9 km/h (2 Bft) S-SW 205 0 min 0,000 mm 0,0 UV-I 0 W/m 4,0 C 4,3 C 12,9 km/h (3 Bft) 99,13 %
02.02.2016 20:50 6,2 C 85 % 1016,5 hPa 0,0 l/m 6,9 km/h (2 Bft) S-SW 202 0 min 0,000 mm 0,0 UV-I 0 W/m 3,9 C 5,8 C 12,9 km/h (3 Bft) 99,12 %
02.02.2016 20:55 6,3 C 85 % 1016,7 hPa 0,0 l/m 8,0 km/h (2 Bft) SW 234 0 min 0,000 mm 0,0 UV-I 0 W/m 4,0 C 5,0 C 12,9 km/h (3 Bft) 100,00 %
02.02.2016 21:00 6,4 C 84 % 1016,8 hPa 0,0 l/m 9,3 km/h (2 Bft) SW 216 0 min 0,000 mm 0,0 UV-I 0 W/m 3,9 C 4,1 C 16,1 km/h (3 Bft) 98,35 %
02.02.2016 21:05 6,6 C 84 % 1016,9 hPa 0,0 l/m 8,3 km/h (2 Bft) SW 222 0 min 0,025 mm 0,0 UV-I 0 W/m 4,1 C 5,1 C 14,5 km/h (3 Bft) 99,12 %
02.02.2016 21:10 6,5 C 84 % 1017,0 hPa 0,0 l/m 9,1 km/h (2 Bft) W-SW 240 0 min 0,000 mm 0,0 UV-I 0 W/m 4,0 C 4,4 C 14,5 km/h (3 Bft) 98,21 %
02.02.2016 21:15 6,4 C 84 % 1017,0 hPa 0,0 l/m 11,7 km/h (2 Bft) W-SW 238 0 min 0,000 mm 0,0 UV-I 0 W/m 3,9 C 2,5 C 19,3 km/h (3 Bft) 98,31 %
02.02.2016 21:20 6,4 C 85 % 1017,1 hPa 0,0 l/m 12,0 km/h (2 Bft) W-SW 252 0 min 0,000 mm 0,0 UV-I 0 W/m 4,1 C 2,4 C 19,3 km/h (3 Bft) 100,00 %
02.02.2016 21:25 6,4 C 84 % 1017,2 hPa 0,0 l/m 10,4 km/h (2 Bft) SW 228 0 min 0,000 mm 0,0 UV-I 0 W/m 3,9 C 3,4 C 17,7 km/h (3 Bft) 96,52 %
02.02.2016 21:30 6,6 C 84 % 1017,2 hPa 0,0 l/m 10,7 km/h (2 Bft) W 267 0 min 0,000 mm 0,0 UV-I 0 W/m 4,1 C 3,4 C 16,1 km/h (3 Bft) 99,15 %
02.02.2016 21:35 6,7 C 83 % 1017,2 hPa 0,0 l/m 12,0 km/h (2 Bft) W-SW 248 0 min 0,000 mm 0,0 UV-I 0 W/m 4,0 C 2,7 C 17,7 km/h (3 Bft) 99,15 %
02.02.2016 21:40 6,9 C 83 % 1017,4 hPa 0,0 l/m 12,4 km/h (3 Bft) SW 225 0 min 0,000 mm 0,0 UV-I 0 W/m 4,2 C 2,7 C 20,9 km/h (4 Bft) 99,15 %
02.02.2016 21:45 7,0 C 83 % 1017,4 hPa 0,0 l/m 13,1 km/h (3 Bft) W-SW 249 0 min 0,000 mm 0,0 UV-I 0 W/m 4,3 C 2,5 C 19,3 km/h (3 Bft) 96,00 %
02.02.2016 21:50 7,3 C 82 % 1017,4 hPa 0,0 l/m 17,5 km/h (3 Bft) W 261 0 min 0,000 mm 0,0 UV-I 0 W/m 4,4 C 0,8 C 27,4 km/h (4 Bft) 97,87 %
02.02.2016 21:55 7,6 C 81 % 1017,4 hPa 0,0 l/m 20,6 km/h (4 Bft) SW 217 0 min 0,000 mm 0,0 UV-I 0 W/m 4,6 C -0,0 C 35,4 km/h (5 Bft) 95,45 %
02.02.2016 22:00 8,1 C 80 % 1017,3 hPa 0,0 l/m 22,5 km/h (4 Bft) SW 221 0 min 0,026 mm 0,0 UV-I 0 W/m 4,9 C 0,0 C 35,4 km/h (5 Bft) 96,67 %
02.02.2016 22:05 8,4 C 79 % 1017,4 hPa 0,0 l/m 21,5 km/h (4 Bft) W-SW 244 0 min 0,000 mm 0,0 UV-I 0 W/m 5,0 C 0,7 C 37,0 km/h (5 Bft) 96,69 %
02.02.2016 22:10 8,6 C 78 % 1017,1 hPa 0,0 l/m 17,1 km/h (3 Bft) SW 235 0 min 0,000 mm 0,0 UV-I 0 W/m 5,0 C 2,6 C 27,4 km/h (4 Bft) 98,20 %
02.02.2016 22:15 8,6 C 77 % 1017,1 hPa 0,0 l/m 15,8 km/h (3 Bft) SW 234 0 min 0,000 mm 0,0 UV-I 0 W/m 4,8 C 3,1 C 24,1 km/h (4 Bft) 95,88 %
02.02.2016 22:20 8,6 C 77 % 1017,1 hPa 0,0 l/m 16,6 km/h (3 Bft) S-SW 200 0 min 0,000 mm 0,0 UV-I 0 W/m 4,8 C 2,8 C 27,4 km/h (4 Bft) 97,84 %
02.02.2016 22:25 8,6 C 77 % 1017,0 hPa 0,0 l/m 18,4 km/h (3 Bft) SW 229 0 min 0,000 mm 0,0 UV-I 0 W/m 4,8 C 2,1 C 29,0 km/h (5 Bft) 99,17 %
02.02.2016 22:30 8,7 C 77 % 1017,0 hPa 0,0 l/m 19,2 km/h (3 Bft) W-SW 238 0 min 0,000 mm 0,0 UV-I 0 W/m 4,9 C 1,9 C 33,8 km/h (5 Bft) 100,00 %
02.02.2016 22:35 8,7 C 77 % 1017,0 hPa 0,0 l/m 21,4 km/h (4 Bft) SW 229 0 min 0,000 mm 0,0 UV-I 0 W/m 4,9 C 1,1 C 35,4 km/h (5 Bft) 96,52 %
02.02.2016 22:40 8,7 C 77 % 1016,8 hPa 0,0 l/m 17,6 km/h (3 Bft) S-SW 207 0 min 0,000 mm 0,0 UV-I 0 W/m 4,9 C 2,5 C 27,4 km/h (4 Bft) 97,37 %
02.02.2016 22:45 8,7 C 77 % 1016,7 hPa 0,0 l/m 20,6 km/h (4 Bft) SW 231 0 min 0,000 mm 0,0 UV-I 0 W/m 4,9 C 1,4 C 30,6 km/h (5 Bft) 99,06 %
02.02.2016 22:50 8,7 C 77 % 1016,8 hPa 0,0 l/m 22,0 km/h (4 Bft) W-SW 241 0 min 0,000 mm 0,0 UV-I 0 W/m 4,9 C 1,0 C 33,8 km/h (5 Bft) 100,00 %
02.02.2016 22:55 8,7 C 77 % 1016,7 hPa 0,0 l/m 22,5 km/h (4 Bft) SW 236 0 min 0,000 mm 0,0 UV-I 0 W/m 4,9 C 0,8 C 32,2 km/h (5 Bft) 100,00 %
02.02.2016 23:00 8,6 C 78 % 1016,6 hPa 0,0 l/m 19,7 km/h (3 Bft) W-SW 238 0 min 0,050 mm 0,0 UV-I 0 W/m 5,0 C 1,6 C 33,8 km/h (5 Bft) 100,00 %
02.02.2016 23:05 8,7 C 78 % 1016,6 hPa 0,0 l/m 22,1 km/h (4 Bft) SW 234 0 min 0,000 mm 0,0 UV-I 0 W/m 5,1 C 0,9 C 33,8 km/h (5 Bft) 99,10 %
02.02.2016 23:10 8,7 C 78 % 1016,5 hPa 0,0 l/m 19,4 km/h (3 Bft) W-SW 252 0 min 0,000 mm 0,0 UV-I 0 W/m 5,1 C 1,8 C 27,4 km/h (4 Bft) 100,00 %
02.02.2016 23:15 8,6 C 78 % 1016,4 hPa 0,0 l/m 20,3 km/h (4 Bft) SW 227 0 min 0,000 mm 0,0 UV-I 0 W/m 5,0 C 1,4 C 32,2 km/h (5 Bft) 98,31 %
02.02.2016 23:20 8,7 C 78 % 1016,5 hPa 0,0 l/m 19,5 km/h (3 Bft) W 261 0 min 0,000 mm 0,0 UV-I 0 W/m 5,1 C 1,8 C 30,6 km/h (5 Bft) 100,00 %
02.02.2016 23:25 8,7 C 78 % 1016,5 hPa 0,0 l/m 22,4 km/h (4 Bft) SW 231 0 min 0,000 mm 0,0 UV-I 0 W/m 5,1 C 0,8 C 33,8 km/h (5 Bft) 100,00 %
02.02.2016 23:30 8,8 C 77 % 1016,5 hPa 0,0 l/m 22,9 km/h (4 Bft) SW 235 0 min 0,000 mm 0,0 UV-I 0 W/m 5,0 C 0,8 C 38,6 km/h (5 Bft) 99,17 %
02.02.2016 23:35 8,9 C 77 % 1016,5 hPa 0,0 l/m 21,0 km/h (4 Bft) SW 236 0 min 0,000 mm 0,0 UV-I 0 W/m 5,1 C 1,5 C 40,2 km/h (6 Bft) 100,00 %
02.02.2016 23:40 8,8 C 77 % 1016,5 hPa 0,0 l/m 19,4 km/h (3 Bft) SW 235 0 min 0,000 mm 0,0 UV-I 0 W/m 5,0 C 1,9 C 33,8 km/h (5 Bft) 99,17 %
02.02.2016 23:45 8,8 C 77 % 1016,5 hPa 0,0 l/m 17,6 km/h (3 Bft) W 262 0 min 0,000 mm 0,0 UV-I 0 W/m 5,0 C 2,6 C 27,4 km/h (4 Bft) 100,00 %
02.02.2016 23:50 8,7 C 77 % 1016,5 hPa 0,0 l/m 18,4 km/h (3 Bft) SW 222 0 min 0,000 mm 0,0 UV-I 0 W/m 4,9 C 2,2 C 27,4 km/h (4 Bft) 99,15 %
02.02.2016 23:55 8,7 C 77 % 1016,5 hPa 0,0 l/m 17,6 km/h (3 Bft) S-SW 207 0 min 0,000 mm 0,0 UV-I 0 W/m 4,9 C 2,5 C 27,4 km/h (4 Bft) 96,69 %
_ Min-Zeit 19:15 13:55 18:40 - 16:50 - - - - - - 19:20 21:55 04:15 17:20
Minimum _ 5,4 C 68 % 1015,4 hPa - 0,0 km/h (0 Bft) - - - - - - 3,7 C -0,0 C 1,6 km/h (1 Bft) 95,04 %
_ Max-Zeit 13:55 04:50 01:50 00:00 23:30 - - 09:05 13:00 12:00 12:05 14:35 14:15 23:35 00:10
Maximum _ 12,3 C 91 % 1023,6 hPa 0,0 l/m 22,9 km/h
SW (4 Bft)
- - 5 min 0,203 mm 1,4 UV-I 424 W/m 7,2 C 12,1 C 40,2 km/h
W-SW (6 Bft)
100,00 %
Durchschnitt _ 8,6 C 82 % 1019,8 hPa #0,0 l/m 8,4 km/h (2 Bft) SW - #5:20 h #1,168 mm 1,0 UV-I 174 W/m 5,6 C 6,7 C 14,3 km/h (3 Bft) 98,65 %